Content
SEND FEEDBACK

Daily
Averages
Monthly
Summary
United Kingdom

WINCHESTER, ENGLAND


Home > Europe > United Kingdom > England
Elevation: 297 feet     Latitude: 51 09N     Longitude: 001 34W

WEATHER
 
SELECT A DAY
Number of Records: 59,756;   Date Range: 10/20/98 - 9/1/14
 
SHARE

PRINT THIS DATA

[ ← Previous Day ]
WEATHER ALMANAC - OCTOBER 5, 2013
[ Next Day → ]
[ °C ]   °F
Weather ElementAverageHighLow
Temperature57.7 °F65 °F (3:50 pm)50 °F (11:50 pm)
Dewpoint51.6 °F56 °F (9:50 am)48 °F (9:50 pm)
Humidity80.3 %100 % (12:50 am)48 % (3:50 pm)
Barometer30.14 in30.27 in (9:50 pm)29.98 in (12:50 am)
Wind Speed4.5 mph8.1 mph (11:50 am)
Weather ElementAverage
Visibility7.5 mi
Wind DirectionWNW (293.7 °)

Weather ElementTotal
Precipitation---
Heating Degree Days7.5 (Base 65)
Growing Degree Days7.5 (Base 50)
Averaged from 30 records on October 5, 2013
WEATHER CONDITIONS BREAKOUT
WIND DIRECTION BREAKOUT
WEATHER BY HOUR - OCTOBER 5, 2013
[ °C ]   °F
Local TimeTemperatureDewpointHumidityBarometerVisibilityWind DirectionWind SpeedGust SpeedPrecipitationEventsConditions
12:50 AM55.4 °F55.4 °F100 %29.98 in6.2 miWest (280°)5.8 mphPartly Cloudy
1:50 AM55.4 °F53.6 °F94 %29.98 in6.2 miWNW (290°)2.3 mph
2:50 AM53.6 °F51.8 °F94 %30.01 in4.3 miSouth (170°)2.3 mph
3:50 AM54.0 °F53.0 °F94 %30.01 in12.0 miWSW (250°)2.3 mphMostly Cloudy
3:50 AM53.6 °F53.6 °F100 %30.01 in6.2 miWSW (250°)2.3 mphMostly Cloudy
4:50 AM55.4 °F53.6 °F94 %30.01 in6.2 miWest (280°)5.8 mphMostly Cloudy
5:50 AM53.6 °F53.6 °F100 %30.04 in6.2 miWNW (300°)2.3 mphMostly Cloudy
6:50 AM55.4 °F53.6 °F94 %30.06 in6.2 miWNW (290°)4.6 mphOvercast
7:50 AM55.4 °F53.6 °F94 %30.06 in6.2 miWNW (300°)5.8 mphOvercast
8:50 AM57.2 °F55.4 °F94 %30.09 in6.2 miWNW (290°)4.6 mphOvercast
9:50 AM58.0 °F56.0 °F90 %30.13 in7.0 miWNW (290°)5.8 mphOvercast
9:50 AM59.0 °F55.4 °F88 %30.12 in6.2 miWNW (290°)5.8 mphOvercast
10:50 AM60.8 °F55.4 °F82 %30.12 in6.2 miNW (310°)5.8 mphOvercast
11:50 AM62.6 °F51.8 °F68 %30.15 in6.2 miNNW (340°)8.1 mphMostly Cloudy
12:50 PM64.4 °F50.0 °F59 %30.15 in6.2 miNNW (330°)5.8 mphMostly Cloudy
12:50 PM64.0 °F51.0 °F52 %30.17 in22.0 miNNW (330°)5.8 mphMostly Cloudy
1:50 PM62.6 °F51.8 °F68 %30.18 in6.2 miWNW (290°)4.6 mphOvercast
2:50 PM62.6 °F53.6 °F72 %30.18 in6.2 miWest (280°)4.6 mphMostly Cloudy
3:50 PM65.0 °F50.0 °F48 %30.19 in13.0 miNNW (330°)6.9 mphMostly Cloudy
3:50 PM64.4 °F50.0 °F59 %30.18 in6.2 miNNW (330°)6.9 mphMostly Cloudy
4:50 PM62.6 °F48.2 °F59 %30.18 in6.2 miWNW (300°)4.6 mphPartly Cloudy
5:50 PM62.6 °F50.0 °F63 %30.21 in6.2 miWest (280°)2.3 mphMostly Cloudy
6:50 PM59.0 °F48.2 °F67 %30.21 in6.2 miWest (280°)4.6 mphScattered Clouds
6:50 PM59.0 °F49.0 °F60 %30.23 in11.0 miWest (280°)4.6 mphScattered Clouds
7:50 PM55.4 °F50.0 °F82 %30.24 in6.2 miWest (280°)5.8 mphMostly Cloudy
8:50 PM53.6 °F48.2 °F82 %30.24 in6.2 miWNW (300°)2.3 mph
9:50 PM52.0 °F48.0 °F83 %30.27 in14.0 miNW (310°)3.5 mph
9:50 PM51.8 °F48.2 °F88 %30.24 in6.2 miNW (310°)3.5 mph
10:50 PM51.8 °F48.2 °F88 %30.27 in6.2 miNNW (340°)2.3 mph
11:50 PM50.0 °F48.2 °F94 %30.27 in5.6 miNW (310°)2.3 mph
Hourly data recorded from EGVP, located miles away from Winchester, England







STORIES FROM OUR PARTNERS